Wetbulb
69.67 73.65 76.29 75.86 75.69 75.53 75.34 75.04 74.86 74.86 74.29 73.70 73.19 72.33 71.98 71.77 72.04 71.87 72.13 72.22 72.02 71.78 71.57 71.53 71.57 70.95 70.25 69.67 69.43 69.40 68.78 68.75 69.02 68.63 68.76 69.58 69.66 68.83 69.54 69.03 68.88 67.02 68.17
72.23 74.43 75.83 76.02 75.65 75.63 75.53 75.30 75.28 74.91 74.60 74.10 73.10 72.30 71.73 71.00 71.03 71.38 71.96 71.51 70.82 70.47 70.10 70.15 70.38 69.81 69.03 68.62 68.91 68.92 68.64 68.18 68.82 68.60 68.48 68.21 68.71 68.07 68.93 68.91 68.79 66.78 68.28
72.89 74.35 74.70 75.79 75.94 75.95 75.50 74.97 74.90 74.60 74.24 73.66 72.59 71.56 70.32 70.44 70.28 70.89 71.97 71.75 70.70 70.23 69.42 69.09 69.21 68.95 68.49 68.59 68.44 68.10 68.14 67.92 67.25 67.19 67.06 64.47 65.55 67.36 67.46 67.54 67.63 67.50 67.00
73.27 74.06 74.21 75.79 75.94 75.46 74.86 74.49 73.88 72.81 72.30 71.98 71.35 69.89 70.10 70.19 70.61 70.64 72.22 71.74 70.52 69.76 68.72 68.39 68.59 68.16 67.89 68.82 68.83 68.27 67.76 66.92 66.42 66.96 62.21 64.00 65.95 68.88 67.73 68.20 68.67 67.32 67.30
72.81 73.75 74.33 75.61 75.60 75.29 74.59 73.69 72.46 71.65 71.13 70.83 70.08 69.93 71.27 70.82 70.96 70.99 72.53 71.09 70.02 68.93 68.09 67.88 67.93 67.57 67.66 68.21 67.92 68.04 67.78 67.96 68.49 66.61 63.03 65.89 66.86 69.58 69.10 69.13 69.15 69.64 70.30
71.27 72.38 74.57 75.14 75.39 74.95 74.28 73.29 71.89 70.88 70.19 69.57 69.35 70.90 72.68 71.26 71.19 72.55 71.98 70.48 70.13 68.92 67.91 67.94 67.92 67.71 67.61 67.90 67.92 68.05 69.04 69.09 67.39 65.50 65.94 67.97 67.77 70.10 70.15 70.13 70.16 70.23 70.40
70.29 71.20 73.81 75.13 75.17 74.71 73.91 73.04 72.19 70.75 69.72 69.22 69.86 71.92 72.74 72.16 72.49 72.34 70.54 69.61 69.14 68.49 68.07 68.42 68.30 68.01 67.67 67.50 67.54 67.76 67.91 67.76 64.93 64.50 64.35 65.19 67.00 68.85 67.86 67.14 67.40 69.30 69.21
70.74 71.68 72.97 73.74 74.27 74.32 73.79 73.05 72.32 70.85 69.71 69.08 70.62 71.60 71.53 71.37 71.74 70.85 69.81 69.27 68.92 68.41 68.23 68.50 68.36 67.78 67.21 66.83 66.86 66.98 66.82 66.86 64.93 63.77 63.85 64.06 68.10 67.25 66.91 66.53 66.04 66.16 66.56
71.18 71.26 71.59 72.28 72.67 72.94 73.05 72.58 72.21 71.58 70.77 69.85 70.75 71.67 71.55 70.76 70.53 70.13 69.44 69.06 68.85 68.39 68.05 68.39 68.31 67.71 67.06 66.45 65.85 66.04 66.05 66.12 63.01 63.55 64.30 63.91 68.12 66.62 66.11 65.65 65.26 64.96 65.02
70.37 71.21 70.41 70.73 71.37 71.00 71.36 71.46 71.16 70.99 70.41 69.71 69.48 70.15 69.54 68.91 69.08 69.49 69.01 69.36 69.20 68.50 68.29 68.34 68.19 67.58 66.82 66.27 65.55 66.18 64.48 65.51 62.05 62.88 63.44 63.56 67.60 66.34 65.84 64.94 64.31 63.69 63.25
69.04 68.84 69.34 69.27 68.75 68.54 68.35 69.34 70.44 70.20 69.45 68.66 67.88 67.24 66.71 65.49 66.21 66.64 66.60 67.60 68.80 69.10 68.62 68.37 68.27 67.29 66.96 65.80 65.66 65.45 62.17 59.11 60.16 62.16 63.08 66.97 67.42 66.63 65.68 64.47 63.51 62.72 62.15
65.59 66.86 67.97 68.03 68.00 67.60 69.23 67.57 67.36 67.96 66.72 65.41 64.85 64.06 63.37 63.13 63.62 65.18 64.33 66.28 68.42 68.93 68.94 68.96 68.56 67.43 65.44 60.08 58.83 61.18 57.82 56.09 58.43 61.70 63.09 68.18 67.38 66.61 65.49 64.41 63.28 62.35 61.57
65.53 65.76 66.72 66.26 66.74 66.95 67.29 66.61 66.14 65.73 64.68 63.89 63.23 62.65 61.72 62.25 61.56 62.41 61.62 63.04 63.77 65.09 65.24 66.72 64.92 62.69 59.91 57.75 56.97 56.29 56.86 54.66 57.68 61.30 64.11 67.88 67.48 67.11 65.89 64.71 63.34 61.95 61.47
63.50 64.40 65.16 65.40 65.58 65.73 66.09 66.34 65.93 65.67 64.33 62.99 62.76 62.27 60.59 59.38 59.26 59.82 60.01 61.00 61.58 62.74 62.75 63.16 61.64 60.73 59.08 57.86 56.55 55.68 54.75 53.55 56.71 60.59 62.44 66.11 67.75 66.87 66.04 65.06 63.55 62.05 61.33
63.41 64.21 64.29 64.71 64.92 65.43 65.30 65.27 65.16 65.34 65.39 64.10 62.90 62.46 61.11 59.21 58.63 59.71 59.95 60.50 60.89 61.10 61.59 61.74 60.98 59.96 58.37 56.00 55.28 55.38 55.85 54.15 53.15 59.15 60.67 63.35 66.07 67.17 65.83 65.53 64.18 62.65 61.65
63.54 64.46 64.97 64.97 64.64 64.54 65.08 64.47 64.54 64.45 65.33 65.11 64.07 63.29 62.17 60.60 59.19 59.59 60.29 60.61 60.40 60.56 61.06 61.56 61.40 60.16 59.26 57.75 55.54 53.78 54.22 54.44 52.54 56.68 59.70 60.75 64.64 66.04 66.19 65.14 64.53 63.15 62.41
63.07 64.58 65.03 65.45 65.45 63.78 64.75 64.46 63.37 63.47 63.97 64.94 65.31 64.60 63.51 61.91 60.07 59.79 60.09 60.09 60.75 60.31 60.48 60.70 60.61 60.46 59.73 59.11 56.37 54.34 52.55 51.97 51.07 51.52 57.64 59.02 60.77 63.39 65.17 64.93 64.53 63.65 62.73
63.10 64.11 64.34 66.45 65.72 64.35 63.39 63.11 62.60 62.04 61.91 63.31 64.76 64.94 64.86 63.59 61.45 59.91 59.69 59.88 60.48 59.28 59.69 59.56 59.97 59.43 59.73 58.90 57.80 55.57 52.81 51.20 50.39 49.49 55.20 57.68 58.76 60.19 62.40 64.90 64.95 63.91 63.14
60.81 62.75 63.95 64.81 64.99 65.28 64.81 64.67 63.52 62.08 61.38 62.05 62.82 63.78 64.29 64.62 62.86 61.63 60.52 60.34 59.70 59.31 58.88 59.29 58.49 59.07 57.89 58.30 57.39 57.12 53.93 50.88 50.06 50.28 51.13 55.48 57.19 58.78 57.91 60.81 62.99 63.18 63.43
47.39 49.61 55.37 60.17 61.35 64.54 64.76 64.39 64.10 64.05 63.52 63.99 64.17 63.34 63.26 63.33 62.79 61.30 61.30 60.86 60.43 59.74 58.53 57.34 58.23 56.93 58.16 58.22 57.66 56.52 52.45 51.15 48.27 48.18 48.15 53.72 56.13 57.43 56.78 56.03 57.31 59.04 61.59
46.86 46.66 46.61 48.23 48.18 52.24 60.34 61.79 61.92 62.20 63.03 62.85 63.64 64.98 65.04 64.43 63.09 61.68 61.29 60.70 60.38 59.74 60.10 59.20 57.79 56.53 55.84 53.50 51.96 50.98 49.19 48.19 47.71 48.23 48.09 49.26 53.62 56.37 56.42 55.94 55.54 55.78 57.32
47.87 48.13 48.41 48.64 48.59 47.93 49.16 50.36 56.10 60.53 62.00 62.60 62.88 63.06 64.11 64.28 64.48 63.83 62.24 61.67 60.73 59.46 58.95 59.01 57.95 56.43 55.81 53.74 52.92 47.93 52.62 52.60 46.61 48.63 47.24 48.31 48.11 52.72 54.83 55.63 54.68 54.21 54.04
48.50 48.54 49.18 49.01 48.95 48.31 47.93 47.79 48.22 48.86 51.58 57.12 59.36 60.84 62.01 62.78 63.36 63.08 63.36 62.53 61.57 59.74 59.35 58.73 57.61 57.05 57.97 53.59 53.69 56.49 49.36 47.83 45.36 46.17 45.23 46.36 47.60 45.82 50.67 52.91 53.32 53.44 52.99
48.10 48.72 49.00 49.00 48.94 49.13 49.06 47.90 46.08 45.76 46.04 47.72 50.05 51.78 50.67 51.86 55.90 59.58 61.16 61.40 61.39 60.53 59.09 58.95 58.41 57.84 56.40 56.44 51.45 53.81 53.33 50.41 49.01 49.41 44.62 43.66 46.20 45.04 46.59 48.97 52.30 52.82 52.21
47.81 47.07 47.46 48.04 48.15 48.29 48.05 48.18 47.37 46.61 46.38 47.07 47.55 48.16 48.77 49.56 53.19 53.85 55.47 58.72 59.44 59.91 59.86 59.41 58.16 56.76 57.03 56.80 54.30 54.19 53.87 53.36 49.67 47.07 50.14 50.95 46.01 46.04 47.34 47.64 48.92 50.59 51.41
46.43 46.62 46.43 47.04 46.65 47.09 47.39 47.46 47.56 47.05 47.12 47.59 47.91 48.40 49.02 49.61 51.03 51.27 52.56 52.70 55.14 59.30 59.29 58.28 58.35 57.51 56.85 56.51 56.62 56.94 55.59 53.23 51.24 50.19 47.99 49.32 48.36 49.02 47.42 48.52 48.68 47.15 47.55
MSLP
1014.64 1014.52 1014.76 1015.01 1015.29 1015.61 1015.82 1016.09 1016.22 1016.50 1016.65 1016.91 1017.06 1017.19 1017.48 1017.51 1017.58 1017.67 1017.73 1017.83 1017.88 1017.86 1017.88 1017.89 1017.90 1018.02 1018.03 1018.11 1018.28 1018.36 1018.44 1018.50 1018.62 1018.66 1018.58 1018.49 1018.34 1018.45 1018.48 1018.47 1018.43 1018.39 1018.43
1014.07 1014.42 1014.83 1015.07 1015.40 1015.76 1016.00 1016.24 1016.52 1016.68 1016.82 1016.94 1017.13 1017.37 1017.63 1017.69 1017.89 1017.85 1018.01 1018.09 1018.21 1018.21 1018.24 1018.23 1018.29 1018.32 1018.41 1018.53 1018.62 1018.73 1018.81 1018.97 1019.08 1019.07 1019.04 1018.98 1018.91 1018.80 1018.78 1018.76 1018.78 1018.75 1018.74
1014.35 1014.52 1014.94 1015.20 1015.54 1015.88 1016.22 1016.42 1016.68 1016.89 1017.08 1017.18 1017.39 1017.55 1017.70 1017.90 1017.97 1018.04 1018.16 1018.29 1018.47 1018.50 1018.57 1018.62 1018.66 1018.69 1018.79 1018.86 1018.96 1019.02 1019.15 1019.27 1019.36 1019.42 1019.42 1019.40 1019.26 1019.14 1019.14 1019.16 1019.12 1019.08 1019.10
1014.18 1014.63 1015.08 1015.40 1015.69 1016.07 1016.40 1016.65 1016.93 1017.20 1017.45 1017.48 1017.62 1017.71 1017.90 1017.98 1018.03 1018.18 1018.32 1018.46 1018.65 1018.79 1018.90 1018.96 1019.01 1019.07 1019.15 1019.19 1019.30 1019.37 1019.41 1019.46 1019.53 1019.62 1019.76 1019.65 1019.47 1019.34 1019.32 1019.34 1019.27 1019.27 1019.24
1014.43 1014.71 1015.18 1015.56 1015.88 1016.22 1016.58 1016.90 1017.16 1017.44 1017.66 1017.78 1017.82 1017.93 1018.00 1018.09 1018.18 1018.31 1018.47 1018.68 1018.87 1019.06 1019.17 1019.26 1019.33 1019.40 1019.50 1019.54 1019.58 1019.55 1019.52 1019.55 1019.60 1019.76 1019.96 1019.84 1019.55 1019.51 1019.47 1019.54 1019.55 1019.41 1019.18
1014.74 1014.95 1015.33 1015.77 1016.05 1016.38 1016.76 1017.06 1017.27 1017.51 1017.77 1017.94 1018.03 1018.06 1018.06 1018.27 1018.38 1018.48 1018.73 1018.98 1019.12 1019.28 1019.36 1019.47 1019.59 1019.67 1019.76 1019.79 1019.80 1019.79 1019.71 1019.83 1019.95 1020.05 1020.13 1019.97 1019.80 1019.80 1019.77 1019.86 1019.72 1019.57 1019.41
1014.91 1015.20 1015.45 1015.88 1016.21 1016.60 1016.97 1017.22 1017.42 1017.65 1017.81 1018.04 1018.29 1018.21 1018.18 1018.40 1018.60 1018.92 1019.22 1019.33 1019.44 1019.55 1019.65 1019.76 1019.87 1019.96 1020.04 1020.08 1020.08 1020.06 1020.07 1020.19 1020.35 1020.39 1020.43 1020.36 1020.10 1020.07 1020.11 1020.20 1020.11 1020.08 1020.02
1014.93 1015.27 1015.43 1015.84 1016.34 1016.80 1017.14 1017.36 1017.60 1017.82 1017.98 1018.18 1018.36 1018.42 1018.52 1018.76 1018.94 1019.27 1019.58 1019.67 1019.77 1019.83 1019.92 1020.04 1020.10 1020.18 1020.27 1020.32 1020.25 1020.31 1020.34 1020.43 1020.55 1020.61 1020.64 1020.56 1020.37 1020.41 1020.53 1020.57 1020.51 1020.50 1020.48
1015.08 1015.38 1015.69 1016.02 1016.46 1016.82 1017.22 1017.47 1017.72 1017.97 1018.18 1018.34 1018.51 1018.62 1018.84 1019.19 1019.43 1019.64 1019.82 1019.94 1019.99 1020.04 1020.12 1020.26 1020.34 1020.42 1020.48 1020.59 1020.57 1020.63 1020.68 1020.69 1020.82 1020.90 1020.80 1020.80 1020.64 1020.63 1020.84 1021.00 1021.08 1021.05 1020.95
1015.62 1015.62 1015.94 1016.24 1016.46 1016.73 1017.16 1017.47 1017.73 1018.04 1018.33 1018.48 1018.73 1018.95 1019.13 1019.26 1019.49 1019.75 1019.98 1020.10 1020.14 1020.21 1020.30 1020.46 1020.51 1020.60 1020.68 1020.75 1020.84 1020.76 1020.85 1020.89 1021.04 1021.11 1021.12 1021.06 1020.77 1020.84 1020.97 1021.12 1021.25 1021.37 1021.35
1016.15 1016.16 1016.16 1016.38 1016.63 1016.77 1017.16 1017.48 1017.78 1018.17 1018.41 1018.59 1018.83 1019.14 1019.36 1019.66 1019.72 1019.88 1020.05 1020.07 1020.12 1020.26 1020.34 1020.51 1020.63 1020.73 1020.83 1020.94 1021.04 1021.12 1021.10 1021.16 1021.23 1021.23 1021.24 1021.12 1020.97 1020.94 1021.10 1021.34 1021.37 1021.48 1021.55
1016.41 1016.53 1016.56 1016.55 1016.81 1017.09 1017.24 1017.65 1018.04 1018.35 1018.58 1018.81 1019.03 1019.35 1019.64 1019.79 1019.93 1020.06 1020.23 1020.32 1020.29 1020.36 1020.40 1020.42 1020.57 1020.72 1020.90 1021.22 1021.34 1021.35 1021.40 1021.41 1021.42 1021.39 1021.36 1021.15 1021.03 1021.10 1021.27 1021.42 1021.46 1021.41 1021.57
1016.24 1016.60 1016.72 1016.77 1016.92 1017.20 1017.43 1017.87 1018.24 1018.49 1018.74 1018.95 1019.15 1019.41 1019.70 1019.91 1020.08 1020.17 1020.35 1020.42 1020.46 1020.48 1020.55 1020.55 1020.70 1020.85 1021.00 1021.22 1021.30 1021.34 1021.45 1021.49 1021.50 1021.43 1021.29 1021.17 1021.04 1021.06 1021.15 1021.36 1021.60 1021.73 1021.69
1016.46 1016.58 1016.75 1016.84 1017.04 1017.30 1017.55 1017.86 1018.18 1018.47 1018.75 1019.03 1019.18 1019.39 1019.71 1020.01 1020.17 1020.24 1020.36 1020.38 1020.47 1020.46 1020.56 1020.66 1020.84 1020.98 1021.11 1021.23 1021.27 1021.21 1021.32 1021.28 1021.28 1021.25 1021.24 1021.20 1021.17 1021.14 1021.25 1021.49 1021.69 1021.76 1021.92
1016.49 1016.55 1016.71 1016.90 1017.07 1017.28 1017.56 1017.77 1018.07 1018.31 1018.54 1018.72 1019.03 1019.21 1019.45 1019.80 1019.99 1020.05 1020.18 1020.31 1020.41 1020.49 1020.53 1020.62 1020.78 1020.95 1021.08 1021.13 1021.11 1021.13 1021.04 1021.08 1021.08 1021.13 1021.19 1021.15 1021.16 1021.18 1021.23 1021.38 1021.60 1021.72 1021.79
1016.21 1016.33 1016.42 1016.67 1016.74 1017.02 1017.30 1017.52 1017.76 1018.08 1018.22 1018.51 1018.66 1018.81 1019.09 1019.31 1019.58 1019.80 1019.94 1020.09 1020.23 1020.29 1020.33 1020.41 1020.53 1020.78 1020.88 1021.00 1021.02 1020.95 1020.87 1020.82 1020.95 1021.06 1021.04 1021.09 1021.06 1021.14 1021.18 1021.18 1021.35 1021.50 1021.65
1015.92 1015.98 1016.05 1016.15 1016.30 1016.76 1017.00 1017.14 1017.48 1017.68 1018.00 1018.19 1018.19 1018.36 1018.63 1018.88 1019.16 1019.29 1019.55 1019.77 1019.77 1019.91 1020.12 1020.30 1020.41 1020.60 1020.77 1020.77 1020.95 1020.68 1020.69 1020.64 1020.78 1020.82 1020.71 1020.83 1020.88 1020.79 1020.81 1020.85 1020.95 1021.18 1021.40
1015.71 1015.82 1015.92 1016.10 1016.29 1016.53 1016.66 1016.81 1017.13 1017.35 1017.62 1017.83 1017.86 1017.90 1018.12 1018.36 1018.62 1018.93 1019.15 1019.24 1019.28 1019.60 1019.79 1020.07 1020.22 1020.38 1020.53 1020.57 1020.59 1020.49 1020.33 1020.35 1020.30 1020.44 1020.40 1020.48 1020.56 1020.66 1020.63 1020.62 1020.71 1020.90 1021.08
1015.51 1015.60 1015.84 1016.12 1016.29 1016.35 1016.39 1016.51 1016.75 1016.96 1017.25 1017.38 1017.56 1017.58 1017.53 1017.69 1017.97 1018.34 1018.52 1018.57 1018.84 1019.16 1019.39 1019.64 1019.91 1020.12 1020.16 1020.20 1020.27 1020.14 1020.06 1020.09 1019.94 1020.01 1020.19 1020.12 1020.18 1020.34 1020.53 1020.53 1020.48 1020.59 1020.80
1015.85 1015.79 1015.86 1015.97 1016.15 1016.34 1016.53 1016.68 1016.77 1016.97 1016.97 1017.01 1017.08 1017.19 1017.19 1017.22 1017.45 1017.89 1018.15 1018.21 1018.55 1018.94 1019.13 1019.35 1019.51 1019.58 1019.66 1019.61 1019.81 1019.72 1019.66 1019.58 1019.70 1019.78 1019.76 1019.69 1019.63 1019.63 1019.83 1020.02 1020.11 1020.26 1020.36
1016.61 1016.47 1016.36 1016.28 1016.36 1016.30 1016.53 1016.67 1016.76 1016.81 1016.75 1016.82 1016.73 1016.76 1016.91 1017.07 1017.31 1017.53 1017.74 1017.96 1018.17 1018.53 1018.58 1018.84 1019.11 1019.32 1019.46 1019.54 1019.87 1019.63 1019.35 1019.18 1019.37 1019.25 1019.31 1019.53 1019.41 1019.27 1019.37 1019.47 1019.66 1019.92 1020.03
1016.87 1016.85 1016.80 1016.76 1016.69 1016.66 1016.66 1016.75 1016.76 1016.77 1016.68 1016.56 1016.48 1016.60 1016.71 1016.89 1017.05 1017.25 1017.42 1017.57 1017.69 1017.96 1018.09 1018.27 1018.57 1018.96 1019.07 1019.23 1019.73 1020.18 1019.61 1018.95 1018.84 1018.52 1018.66 1018.74 1018.68 1018.83 1018.96 1019.14 1019.37 1019.66 1019.95
1017.20 1017.26 1017.20 1017.09 1016.98 1016.94 1016.92 1016.90 1016.93 1016.92 1016.86 1016.79 1016.69 1016.70 1016.68 1016.68 1016.75 1016.87 1016.92 1016.96 1017.16 1017.34 1017.62 1017.76 1017.94 1018.28 1018.56 1018.78 1018.90 1019.28 1019.54 1019.22 1019.17 1018.42 1018.38 1018.40 1018.30 1018.52 1018.49 1018.80 1019.14 1019.33 1019.56
1017.23 1017.33 1017.44 1017.47 1017.44 1017.33 1017.16 1017.21 1017.33 1017.42 1017.51 1017.32 1017.20 1017.02 1016.93 1016.89 1016.84 1016.80 1016.70 1016.59 1016.56 1016.89 1017.13 1017.19 1017.36 1017.58 1017.90 1018.24 1018.75 1018.78 1018.77 1018.96 1019.12 1018.56 1018.52 1018.39 1018.45 1018.23 1018.74 1018.81 1018.73 1018.81 1018.87
1017.43 1017.59 1017.64 1017.67 1017.78 1017.83 1017.75 1017.71 1017.79 1017.84 1017.89 1017.78 1017.68 1017.54 1017.34 1017.17 1017.07 1017.04 1016.85 1016.54 1016.55 1016.56 1016.60 1016.72 1016.93 1017.12 1017.29 1017.50 1017.80 1018.11 1018.44 1018.69 1019.12 1019.43 1018.37 1018.43 1018.52 1018.46 1018.37 1018.64 1018.83 1018.72 1018.68
1017.63 1017.80 1017.90 1018.00 1018.23 1018.22 1018.23 1018.26 1018.33 1018.38 1018.29 1018.21 1018.18 1018.12 1017.91 1017.76 1017.66 1017.50 1017.20 1017.02 1016.67 1016.47 1016.38 1016.36 1016.49 1016.68 1016.76 1016.96 1017.21 1017.42 1017.74 1017.96 1018.22 1018.53 1018.59 1018.33 1018.32 1018.24 1018.16 1018.51 1018.61 1018.41 1018.60
Wind_Speed
6 7 15 16 16 15 14 13 13 12 12 13 13 12 10 10 11 10 11 12 11 11 11 12 12 13 14 15 14 14 14 13 13 12 11 10 12 11 10 10 11 7 8
10 11 16 16 16 14 14 13 12 11 11 14 14 12 10 10 9 9 10 13 11 11 11 11 11 12 13 13 13 13 13 13 12 11 9 8 8 9 9 9 8 6 8
11 11 12 15 15 14 13 13 12 10 11 12 14 11 9 9 10 9 10 13 11 11 10 10 10 10 11 12 12 11 10 10 10 8 7 3 3 8 8 7 6 5 5
12 10 9 14 14 15 13 12 14 13 11 11 10 9 9 9 10 10 11 13 11 10 10 9 9 9 10 11 10 8 6 4 3 5 3 3 2 6 7 5 5 3 2
11 10 10 14 15 14 14 14 14 13 10 8 9 8 8 10 10 10 14 13 12 10 10 9 9 9 9 9 8 6 4 4 6 4 2 1 2 8 7 5 5 6 10
8 8 12 14 14 13 14 13 14 13 11 9 7 4 12 11 11 11 14 12 11 10 10 9 8 8 8 7 7 7 7 9 8 5 4 3 6 11 11 10 9 11 14
8 7 12 16 15 13 14 13 13 13 12 11 6 6 12 10 12 13 12 11 11 10 10 8 7 6 5 5 5 8 8 9 5 4 4 3 4 8 7 5 6 10 10
11 7 11 15 15 14 14 14 13 13 12 11 10 6 10 8 11 11 10 10 9 9 9 7 6 4 3 4 4 7 7 8 4 4 4 3 7 5 5 5 5 4 4
8 7 6 7 10 13 13 14 14 12 11 10 9 8 11 9 8 8 7 7 7 7 7 6 4 2 1 1 2 3 5 6 5 2 3 2 6 5 4 4 4 4 4
5 6 6 5 7 8 10 13 13 12 11 11 8 7 8 9 9 9 6 4 5 6 6 5 3 2 3 3 1 2 5 5 3 2 1 2 5 5 5 5 4 4 4
4 4 5 5 4 6 5 7 11 11 10 9 8 7 6 3 4 5 4 7 7 7 7 6 4 3 3 5 4 2 4 1 2 2 2 6 6 6 6 5 4 4 3
5 4 4 5 5 5 4 5 5 5 4 4 5 5 3 4 3 3 3 5 6 6 7 7 6 4 2 2 2 3 0 2 3 3 2 8 7 6 5 6 5 5 5
7 4 6 5 5 6 4 3 2 2 3 3 5 5 4 3 2 2 2 2 2 5 2 4 2 1 3 2 3 1 2 2 2 3 4 9 9 8 7 7 6 5 6
6 7 6 5 5 5 3 4 4 4 3 3 4 5 4 3 3 3 3 4 4 3 4 4 2 3 4 5 4 4 4 3 3 3 4 9 9 9 8 8 8 7 6
6 7 7 7 6 5 5 4 4 4 4 4 4 5 4 4 4 4 4 3 4 3 4 4 4 4 4 5 5 5 5 5 5 3 3 8 10 10 10 10 10 9 8
7 8 8 9 8 7 6 6 5 4 5 4 4 5 6 5 4 4 4 4 4 4 4 4 5 4 4 4 5 6 7 4 5 5 4 4 10 10 11 12 12 11 10
6 8 9 9 7 8 9 7 5 5 5 5 6 6 8 7 6 6 5 4 6 4 5 4 4 3 4 4 6 5 5 6 5 6 5 4 5 11 12 14 13 13 12
5 8 7 7 7 7 8 6 4 5 4 5 5 4 8 8 8 7 5 6 6 4 5 4 5 4 5 4 4 5 5 5 6 6 5 5 5 5 9 14 14 15 15
7 6 6 6 7 8 6 5 6 6 5 5 4 6 8 9 8 8 7 7 6 5 5 5 4 5 4 5 6 6 5 6 6 5 6 7 7 6 5 9 12 13 14
3 2 1 2 2 4 4 3 2 3 4 4 5 5 7 7 7 6 5 5 4 4 4 3 7 4 6 6 5 6 4 6 3 5 6 5 7 9 7 7 6 7 13
5 6 5 5 4 2 1 2 2 4 3 3 4 5 5 4 4 5 5 5 5 6 8 6 4 6 4 2 1 3 4 5 6 7 4 5 7 8 8 8 6 4 6
4 4 6 5 4 3 2 0 0 1 2 2 2 3 5 5 6 5 6 6 5 4 6 6 6 3 3 4 3 1 5 4 4 8 6 8 10 5 7 8 8 7 6
5 4 4 4 5 4 3 1 1 1 2 2 1 1 1 3 4 5 6 5 5 5 5 6 5 8 8 3 6 4 2 5 2 2 4 5 8 5 5 5 6 6 7
3 4 5 5 5 5 5 3 2 0 1 2 2 3 4 4 5 4 5 5 5 4 5 6 5 6 4 6 1 5 3 2 3 6 1 4 3 4 3 4 5 8 9
5 4 4 5 6 5 5 3 2 0 1 1 2 4 5 5 6 6 6 5 5 4 5 6 5 6 5 3 4 3 4 4 2 2 10 3 2 2 4 4 5 5 8
4 5 5 6 5 6 6 6 4 2 1 2 3 3 3 3 4 6 7 6 5 4 4 4 5 6 5 4 3 4 5 3 3 5 7 6 6 2 1 3 2 2 2
Wind_Direction
177 161 146 145 141 140 139 137 132 130 128 123 116 110 106 106 104 106 104 101 97 88 87 84 82 82 83 87 89 89 89 87 83 83 77 61 95 80 84 76 66 59 70
144 146 149 145 142 143 139 139 137 140 143 136 128 115 115 112 117 114 115 106 105 99 93 91 90 88 87 90 94 93 91 88 85 78 69 63 72 87 91 82 80 80 77
147 144 148 146 146 143 140 144 149 145 126 126 111 113 117 125 126 126 133 119 111 104 100 98 97 93 91 94 95 93 94 95 86 83 74 55 76 94 92 89 88 84 75
142 141 146 146 143 136 142 129 121 114 112 105 109 115 128 131 133 139 134 124 117 107 104 103 102 102 100 103 98 93 89 102 138 105 61 25 343 116 107 99 91 72 27
139 138 147 143 137 141 136 129 122 115 111 116 121 136 137 141 142 146 141 126 121 115 116 115 112 110 112 112 103 85 56 90 122 131 98 50 3 138 92 81 51 72 37
130 130 141 140 141 141 132 133 124 120 123 120 133 156 148 145 144 140 131 127 125 129 128 124 120 117 117 115 104 81 92 102 96 108 122 103 66 97 83 83 77 60 51
132 147 160 147 146 145 141 137 133 132 132 131 147 134 123 146 140 128 133 133 136 139 138 136 130 125 119 110 98 84 100 104 109 109 97 76 77 68 71 62 59 48 52
140 140 151 147 152 153 153 147 142 139 140 148 155 146 108 130 116 131 143 141 146 148 148 148 143 138 126 112 100 86 92 123 118 115 104 81 92 104 90 97 86 80 74
137 133 138 143 159 165 161 158 153 151 151 153 160 148 136 126 128 148 150 154 157 156 156 159 162 177 216 94 73 71 83 128 129 130 129 125 141 125 109 95 84 79 76
131 142 146 155 169 166 171 165 159 157 159 157 162 156 150 149 154 162 157 174 168 165 168 180 192 223 280 320 0 52 61 143 142 162 160 204 161 136 137 122 107 87 78
121 146 153 155 162 142 155 167 155 164 165 161 160 156 144 158 166 168 180 190 178 175 179 192 212 243 292 320 327 58 57 90 176 205 207 228 178 164 159 148 137 125 112
174 182 176 164 163 149 159 143 149 159 157 154 157 166 161 171 173 177 217 226 206 193 190 200 208 223 291 318 316 29 340 311 227 215 219 224 199 193 185 174 175 162 148
180 171 187 183 171 164 157 148 147 149 153 165 174 174 176 171 198 202 209 230 225 221 212 223 224 216 232 247 264 240 211 246 230 221 225 226 213 210 201 195 191 184 172
174 191 189 181 178 185 157 166 167 163 168 181 191 180 169 187 201 207 211 218 220 214 208 211 209 232 253 256 251 252 228 239 217 217 230 230 224 220 214 204 202 198 198
181 196 201 185 192 187 179 166 170 180 185 191 188 191 178 190 202 195 215 214 222 211 211 213 214 226 238 249 254 253 253 229 229 221 225 236 229 228 220 215 211 210 206
188 194 193 196 197 180 190 184 192 184 193 194 194 199 193 194 201 201 211 218 222 210 216 212 212 220 234 229 254 246 255 233 222 231 222 238 232 229 222 219 217 218 217
194 196 198 195 187 190 200 197 191 198 187 202 210 193 199 199 202 204 209 211 224 208 217 219 228 231 244 230 244 247 244 250 223 228 216 214 230 228 223 224 223 221 221
207 196 195 196 182 186 199 197 195 201 194 205 209 204 202 203 202 207 211 219 217 202 202 206 218 227 236 229 236 239 236 237 233 228 218 211 219 221 229 227 225 224 224
233 231 213 193 188 200 197 191 196 206 203 211 205 213 218 214 205 209 214 221 204 210 208 209 222 215 223 237 237 246 238 233 232 229 227 218 214 215 216 230 228 222 223
74 90 26 146 174 195 169 185 203 202 225 222 217 216 222 222 211 203 226 224 189 212 225 207 224 211 229 241 239 249 245 243 228 232 233 226 221 218 211 211 219 223 216
54 78 64 87 26 82 142 189 203 222 203 213 227 242 223 220 224 206 218 209 191 206 224 211 206 224 248 194 51 284 267 238 238 240 228 240 240 227 219 215 213 211 222
89 68 63 54 36 39 67 130 135 290 277 258 232 219 212 213 215 212 220 229 221 211 224 220 194 198 232 175 193 71 292 284 260 233 212 226 235 218 225 226 217 213 217
112 96 77 48 35 38 26 23 19 7 1 342 344 299 305 268 250 235 232 225 225 200 224 225 205 204 244 196 197 207 278 235 340 310 248 234 238 207 223 217 226 225 217
111 90 90 84 66 36 22 44 54 177 236 294 332 328 324 349 338 319 268 244 237 209 217 225 212 213 196 234 153 235 254 166 248 295 286 285 275 250 257 230 219 223 218
120 96 75 76 55 47 60 66 85 68 291 331 347 348 341 355 22 14 355 307 255 231 232 225 214 202 202 206 188 166 219 218 175 237 287 296 338 254 213 223 249 239 232
100 90 73 76 49 43 56 51 63 68 28 62 23 26 2 6 17 8 359 360 349 312 261 242 235 222 212 218 214 200 204 197 196 213 246 261 253 259 292 314 290 296 291